Regional Weather Roundup
Issued by NWS

Home | Current Version | Previous Version | Graphics & Text | Print | Product List | Glossary On
Versions: 1 2 3 4 5 6 7 8 9 10 11 12 13 14 15 16 17 18 19 20 21 22 23 24 25 26 27 28 29 30 31 32 33 34 35 36 37 38 39 40 41 42 43 44 45 46 47 48 49 50
000
ASUS44 KMEG 030900
RWRTN
TENNESSEE HOURLY STATE WEATHER ROUNDUP
NATIONAL WEATHER SERVICE MEMPHIS TN
300 AM CST TUE MAR 03 2015

TNZ002-004-019-021-049-052-054-088>092-031000-
WEST TENNESSEE

CITY           SKY/WX    TMP DP  RH WIND       PRES   REMARKS
MEMPHIS INTL   DRZL/FOG  42  41  96 S3        30.11F VSB 1
NWS MEMPHIS      N/A     41 N/A N/A MISG        N/A
JACKSON        CLOUDY    44  41  89 SE6       30.11F
DYERSBURG      CLOUDY    39  23  52 CALM      30.12F
UNION CITY     CLOUDY    36  32  87 CALM      30.09F
PARIS          CLOUDY    39  28  65 SE6       30.11F WCI  35
LEXINGTON      CLOUDY    43  39  87 CALM      30.12F
SAVANNAH       CLOUDY    43  43 100 S3        30.13F
$$

TNZ008-025-027-028-033-062-065-066-031000-
NORTH MIDDLE TENNESSEE

CITY           SKY/WX    TMP DP  RH WIND       PRES   REMARKS
NASHVILLE      CLOUDY    44  32  62 SE5       30.14F
CLARKSVILLE    CLOUDY    40  29  64 SE5       30.13F
COOKEVILLE       N/A     45  36  70 S6        30.14F
CROSSVILLE     CLOUDY    44  34  67 CALM      30.17S
$$

TNZ061-075-076-078-094-096-097-031000-
SOUTH MIDDLE TENNESSEE

CITY           SKY/WX    TMP DP  RH WIND       PRES   REMARKS
FAYETTEVILLE   CLOUDY    45  41  87 CALM        N/A
TULLAHOMA        N/A     45  39  81 CALM      30.16F
WINCHESTER     CLOUDY    46  41  81 SE5       30.16F
COLUMBIA       CLOUDY   N/A N/A N/A CALM      30.13F
SHELBYVILLE    CLOUDY    43  41  93 E3        30.17F
$$

TNZ017-018-042-046-047-031000-
NORTHEAST TENNESSEE

CITY           SKY/WX    TMP DP  RH WIND       PRES   REMARKS
TRI CITIES     CLOUDY    37  29  72 CALM      30.19S
ELIZABETHTON   CLOUDY    37  30  75 NE5       30.18F WCI  34
$$

TNZ012-013-036-069-073-074-031000-
CENTRAL EAST TENNESSEE

CITY           SKY/WX    TMP DP  RH WIND       PRES   REMARKS
KNOXVILLE      CLOUDY    42  36  79 NE3       30.19F
OAK RIDGE      CLOUDY    42  32  67 CALM      30.20F
GATLINBURG     CLOUDY    37  36  93 CALM      30.19R
$$

TNZ083-085-099-031000-
SOUTHEAST TENNESSEE

CITY           SKY/WX    TMP DP  RH WIND       PRES   REMARKS
CHATTANOOGA    CLOUDY    46  36  68 N5        30.21F
$$

SKY/WX REPORTED AS FAIR MEANS FEW OR NO CLOUDS BELOW
12 THOUSAND FEET.




USA.gov is the U.S. government's official web portal to all federal, state and local government web resources and services.